FREGAT DEB, 45999

Orbit data source: Space-Track

FREGAT DEB, 45999 is space debris in LEO originally from a launch on Mon, 18 Jul 2011 UTC launched from the Tyuratam Missile And Space Complex (TTMTR). Debris objects in space refer to the collection of defunct objects orbiting the Earth. Examples of debris include non-operational satellites, rocket bodies, and fragments generated from explosions, collisions, or faulty payload assembly.

Loading next visibility...
Identifier
45999, 2011-037HA
Orbit
LEO
Country
Flag of CISCIS
Related business
Manufacturer
Lavochkin
Mission
Spacecraft
Bus & Motor
Unknown
Mass
Unknown
Launch date (UTC)
2011-07-18 (14 years ago)
Launch vehicle
Unknown
Launch site
Tyuratam Missile And Space Complex (TTMTR)
Object type
Payload
Rocket body
Debris
Shape & HBR
Unknown shape, 1.1 m
Radar Cross Section
Small (<0.1 m²)

Expand to show TLE details & history
Last TLE update: 1 day ago

TLE from 1 day ago
0 FREGAT DEB
1 45999U 11037HA  25296.81821489  .00000312  00000-0  96155-3 0  9998
2 45999  51.4582  84.1324 2140035  84.5978 299.3435 10.06266680192362
Epoch: 2025-10-23T19:38Z
TLE epoch observation values (Epoch: 2025-10-23T19:38:13.766Z)
Latitude
-0.00001°
Longitude
117.10302°
Altitude
2,096.784 km
Speed
7.079 km/s
True Right ascension
05h 36m 31s
True Declination
0° 00' 00"
Sunlit
Object was in daylight at epoch
Visualization orbit readout
Latitude
Unknown
Longitude
Unknown
Altitude
Unknown
Speed
Unknown
Apparent Right ascension
Unknown
Apparent Declination
Unknown
Sunlit
N/A
Visualization observer readout
Local Sidereal Time
17:41:02
Azimuth
Unknown
Elevation
Unknown
Doppler factor
Unknown
Orbital elements
Apogee altitude
4,624.596 km
Perigee altitude
745.491 km
Semi-major axis
9,063.18 km
Eccentricity
0.214
Inclination
51.4582°
RAAN
84.1324°
Arg. of periapsis
84.5978°
True anomaly
275.48389°
Mean anomaly
299.3435°
Eccentric anomaly
287.65983°
Mean motion
2.51549 °/min
Orbital period
143.11 mins
BSTAR
0.00096155
Loading maneuver chart data...
Computing Atmospheric mass density...
Loading historical data...
Loading historical data...
Loading historical data...
Loading historical data...
Loading historical data...
Loading historical data...
Loading historical data...

Documentation

Showing up to 5 results
|